Tracking 20037 objects as of 20-Nov-2019
Live streaming from Space Station
objects crossing your sky now

A-1 (ASTERIX)

Track A-1 (ASTERIX) now!
10-day predictions
A-1 (ASTERIX) is classified as:


NORAD ID: 1778
Int'l Code: 1965-096A
Perigee: 529.7 km
Apogee: 1,651.8 km
Inclination: 34.3 °
Period: 106.9 minutes
Semi major axis: 7461 km
RCS: 0.3783 m2 (medium)
Launch date: November 26, 1965
Source: France (FR)
Launch site: HAMMA GUIRA SPACE TRACK RANGE (HGSTR)
aabbcc
Your satellite tracking list
Your tracking list is empty




NASA's NSSDC Master Catalog

Two Line Element Set (TLE):
1  1778U 65096A   19324.03881775  .00000007  00000-0 -57378-6 0  9991
2  1778  34.2590 299.2032 0751880 202.2566 154.3747 13.46920501640245
Source of the keplerian elements: AFSPC